sat.trackr.live / text

‹ back to catalog

STARLINK-5099

NORAD 54009 · 2022-125AX

PAYLOAD ACTIVE UNKNOWN

§ Identity

Operator
Country
US
Launch date
2022-10-05
Launch site
AFWTR
Launch vehicle
Mass (kg)
RCS (m²)

Purposes: comms

External: N2YO · Heavens-Above · Gunter

§ Orbital elements

Epoch: 2026-09-20T16:47:02.194944Z

Period
93.85 min
Inclination
53.1602°
Eccentricity
0.0001042
Mean motion
15.34393586 rev/d
Perigee alt
462.0 km
Apogee alt
463.4 km
Semi-major
6,840.9 km
B*
3.5093e-5
RAAN
50.9280°
Arg perigee
83.8990°
Mean anomaly
276.2132°
Rev number
21,900

§ Raw data

STARLINK-50991 54009U 22125AX  26263.69933096  .00000809  00000+0  35093-4 0  99942 54009  53.1602  50.9280 0001042  83.8990 276.2132 15.34393586219007

JSON: /api/v1/satellites/54009 · /tle

For live sub-satellite position, see the globe view (requires WebGL).

§ Visibility from observer

Set your observer location to see the next 7 days of passes ≥ 10°. The values pass through the URL so the page stays shareable.

No JS? Fill the form by hand. The geolocation button needs JavaScript.